Forest City Municipal Airport
Tuesday 11:35 PM
Temperature52° (75°/41°)
Dew Point52°
Relative Humidity100
%
Visibility10
mi
Pressure1019.6
mb
Wind Direction
Wind SpeedCalm
Precipitation Today0.00"

Last 30 Observations

Time PresWx Temp DP Feels RH% Vsby Pressure Ceiling Direction Speed 1h Precip
11:15 PM 54° 54° 100
%
10
mi
1019.7
mb
Calm 0.00"
10:55 PM 54° 54° 100
%
10
mi
1020.0
mb
Calm 0.00"
10:35 PM 54° 54° 100
%
10
mi
1019.7
mb
Calm 0.00"
10:15 PM 54° 54° 100
%
10
mi
1019.7
mb
Calm 0.00"
9:55 PM 55° 55° 100
%
10
mi
1019.3
mb
Calm 0.00"
9:35 PM 57° 57° 100
%
10
mi
1019.3
mb
Calm 0.00"
9:15 PM 59° 55° 88
%
10
mi
1019.3
mb
Calm 0.00"
8:55 PM 59° 55° 88
%
10
mi
1019.3
mb
Calm 0.00"
8:35 PM 63° 54° 72
%
10
mi
1019.3
mb
Calm 0.00"
8:15 PM 64° 52° 64
%
10
mi
1019.3
mb
Calm 0.00"
7:55 PM 70° 50° 49
%
10
mi
1019.0
mb
Calm 0.00"
7:35 PM 72° 48° 71°43
%
10
mi
1019.0
mb
Calm 0.00"
7:15 PM 72° 46° 70°41
%
10
mi
1019.3
mb
Calm 0.00"
6:55 PM 72° 45° 70°38
%
10
mi
1019.3
mb
Calm 0.00"
6:35 PM 72° 50° 71°46
%
10
mi
1019.3
mb
Calm 0.00"
6:15 PM HZ 72° 48° 71°43
%
4
mi
1019.7
mb
Calm 0.00"
5:55 PM 72° 45° 70°38
%
10
mi
1019.7
mb
SW
220°
3
mph
0.00"
5:35 PM 73° 43° 72°33
%
10
mi
1020.0
mb
6,000
ft
SW
220°
3
mph
0.00"
5:15 PM 73° 43° 72°33
%
10
mi
1020.0
mb
7,000
ft
W
270°
5
mph
0.00"
4:55 PM 75° 43° 74°31
%
10
mi
1020.0
mb
7,000
ft
WSW
240°
5
mph
0.00"
4:35 PM 73° 43° 72°33
%
10
mi
1020.3
mb
Calm 0.00"
4:15 PM 73° 45° 72°36
%
10
mi
1020.3
mb
Calm 0.00"
3:55 PM 72° 45° 70°38
%
10
mi
1020.3
mb
6,000
ft
ENE
70°
3
mph
0.00"
3:35 PM 73° 45° 72°36
%
10
mi
1020.7
mb
6,000
ft
WNW
290°
5
mph
0.00"
3:15 PM 73° 43° 72°33
%
10
mi
1020.7
mb
5,500
ft
Calm 0.00"
2:55 PM 75° 43° 74°31
%
10
mi
1021.0
mb
5,500
ft
Calm 0.00"
2:35 PM 73° 45° 72°36
%
10
mi
1021.3
mb
5,500
ft
Calm 0.00"
2:15 PM 72° 43° 70°35
%
10
mi
1021.3
mb
Calm 0.00"
1:55 PM 73° 45° 72°36
%
10
mi
1021.3
mb
Calm 0.00"
1:35 PM 72° 43° 70°35
%
10
mi
1021.3
mb
NNW
340°
3
mph
0.00"